ONEWEB-0225 (48799 NORAD) Tracking and Keplerian Element Data

This shows tracking and keplerian element data for the satellite.

Feedback or suggestion? Click here.




ElementValue
Catalog48799
NameONEWEB-0225
Epoch Orbit355
Epoch Day214.91667824
Epoch Year2021
RAAN254.6977
Inclination87.6489
Eccentricity0.0009173
Argument of Perigee55.2614
Mean Anonmoly62.3737
Mean Motion14.46414497
Decay Rate-0.01420246
L11 48799U 21045AJ 21214.91667824 -.01420246 00000-0 -42431+0 0 9996
L22 48799 87.6489 254.6977 0009173 55.2614 62.3737 14.46414497 3559

Live tracking and technical data element details for ONEWEB-0225 (NORAD 48799). ONEWEB-0225 can be tracked NOW for your location showing map with azimuth and elevation plus other details from your city location.

Track the satellite on the map from your city or location and see movement details for azimuth, elevation, latitude, longitude, range, height, and movement on the map or in text.







IsCatalogInMostPopularTable: catalog: 48799, numindb: 17
Update: records affected: 1



GetName: 48799 ONEWEB-0225

Hit Count: updated at: Wed, 04 Aug 2021 00:32:34 GMT